Date String (YYYY-MM-DD hh:mm:ss) UTC,Instrument flags,Ambient pressure (hPa),Sample flow (lpm),Bypass flow (lpm),Sample temperature (°C),Ambient temperature (°C),ASC tube jacket temperature (°C),LED temperature (°C),Box temperature (°C),Sample RH (%),Span deviation,Mass concentration (μg/m³),Mass concentration (μg/m³),Mass concentration (μg/m³)
DateTimeUTC,F1_M11,P_M11,Q1_M11,Q2_M11,T1_M11,T2_M11,T3_M11,T4_M11,T5_M11,U1_M11,ZSPAN_M11,X2_M11,X0_M11,X1_M11
2022-09-14 11:00:00,,0822.4,4.99,0.00,30.3,28.7,00.0,39.2,32.1,17.1,0001.1,0008.75,0013.69,0007.84
2022-09-14 11:01:00,,0822.4,5.01,0.00,30.3,28.8,00.0,39.2,32.1,17.1,0000.9,0008.75,0013.47,0007.89
2022-09-14 11:02:00,,0822.4,4.98,0.00,30.3,28.8,00.0,39.2,32.1,17.1,0000.7,0008.83,0013.49,0007.95
2022-09-14 11:03:00,,0822.3,5.01,0.00,30.4,28.8,00.0,39.2,32.1,17.0,0000.8,0008.89,0013.74,0008.00
2022-09-14 11:04:00,,0822.4,5.00,0.00,30.4,28.8,00.0,39.2,32.2,17.0,0000.8,0008.92,0014.01,0008.05
2022-09-14 11:05:00,,0822.4,4.99,0.00,30.4,28.9,00.0,39.2,32.2,17.1,0001.0,0008.95,0015.13,0008.09
2022-09-14 11:06:00,,0822.3,5.00,0.00,30.4,28.9,00.0,39.2,32.2,17.1,0000.7,0008.93,0015.19,0008.11
2022-09-14 11:07:00,,0822.4,4.99,0.00,30.4,28.9,00.0,39.2,32.2,17.3,0000.6,0008.91,0015.41,0008.11
2022-09-14 11:08:00,,0822.4,5.01,0.00,30.4,29.0,00.0,39.2,32.2,17.3,0000.7,0008.86,0015.38,0008.05
2022-09-14 11:09:00,,0822.4,5.00,0.00,30.4,29.0,00.0,39.2,32.2,17.3,0000.8,0008.79,0015.92,0007.99
2022-09-14 11:10:00,,0822.3,5.01,0.00,30.4,29.0,00.0,39.2,32.2,17.2,0001.2,0008.73,0015.74,0007.96
2022-09-14 11:11:00,,0822.4,4.99,0.00,30.4,29.1,00.0,39.2,32.3,17.1,0001.5,0008.71,0015.68,0007.94
2022-09-14 11:12:00,,0822.3,5.01,0.00,30.5,29.1,00.0,39.2,32.3,16.9,0001.5,0008.76,0016.23,0007.93
2022-09-14 11:13:00,,0822.4,4.99,0.00,30.5,29.1,00.0,39.2,32.3,16.9,0001.7,0008.72,0016.40,0007.92
2022-09-14 11:14:00,,0822.4,5.00,0.00,30.5,29.1,00.0,39.2,32.3,16.8,0001.6,0008.68,0016.16,0007.90
2022-09-14 11:15:00,,0822.3,5.01,0.00,30.5,29.1,00.0,39.2,32.3,16.5,0001.3,0008.65,0015.76,0007.89
2022-09-14 11:16:00,,0822.3,5.00,0.00,30.5,29.2,00.0,39.2,32.3,16.4,0001.6,0008.65,0014.83,0007.88
2022-09-14 11:17:00,,0822.4,4.99,0.00,30.5,29.2,00.0,39.3,32.3,16.4,0002.0,0008.65,0014.42,0007.85
2022-09-14 11:18:00,,0822.3,5.01,0.00,30.5,29.2,00.0,39.3,32.3,16.4,0002.1,0008.61,0014.02,0007.83
2022-09-14 11:19:00,,0822.4,4.99,0.00,30.6,29.2,00.0,39.3,32.4,16.4,0002.2,0008.60,0014.24,0007.82
2022-09-14 11:20:00,,0822.4,5.02,0.00,30.6,29.3,00.0,39.3,32.4,16.4,0002.3,0008.61,0013.66,0007.83
2022-09-14 11:21:00,,0822.4,4.99,0.00,30.6,29.3,00.0,39.3,32.4,16.5,0002.2,0008.64,0013.68,0007.85
2022-09-14 11:22:00,,0822.4,5.01,0.00,30.6,29.3,00.0,39.3,32.4,16.6,0001.8,0008.64,0014.95,0007.85
2022-09-14 11:23:00,,0822.4,5.00,0.00,30.6,29.3,00.0,39.4,32.4,16.9,0001.7,0008.64,0014.94,0007.86
2022-09-14 11:24:00,,0822.4,5.00,0.00,30.6,29.3,00.0,39.4,32.4,16.9,0001.6,0008.64,0014.72,0007.85
2022-09-14 11:25:00,,0822.4,5.01,0.00,30.6,29.3,00.0,39.4,32.5,17.0,0001.5,0008.65,0014.71,0007.87
2022-09-14 11:26:00,,0822.4,5.00,0.00,30.7,29.3,00.0,39.4,32.5,17.0,0001.5,0008.68,0015.06,0007.87
2022-09-14 11:27:00,,0822.4,4.99,0.00,30.7,29.3,00.0,39.4,32.5,16.9,0001.5,0008.66,0015.07,0007.87
2022-09-14 11:28:00,,0822.4,5.01,0.00,30.7,29.3,00.0,39.4,32.5,16.8,0001.4,0008.63,0015.65,0007.88
2022-09-14 11:29:00,,0822.3,5.00,0.00,30.7,28.9,00.0,39.4,32.5,16.7,0000.8,0008.68,0015.88,0007.90
2022-09-14 11:30:00,,0822.4,5.01,0.00,30.7,27.4,00.0,39.4,32.4,16.5,0000.9,0008.69,0015.46,0007.95
2022-09-14 11:31:00,,0822.4,5.00,0.00,30.6,27.0,00.0,39.3,32.3,16.5,0001.0,0008.75,0015.78,0008.00
2022-09-14 11:32:00,,0822.4,5.01,0.00,30.5,27.1,00.0,39.3,32.1,16.6,0000.9,0008.79,0016.32,0008.03
2022-09-14 11:33:00,,0822.4,5.00,0.00,30.4,27.4,00.0,39.2,32.0,16.8,0000.6,0008.83,0015.34,0008.07
2022-09-14 11:34:00,,0822.3,5.00,0.00,30.4,27.7,00.0,39.2,32.0,16.9,0000.5,0008.84,0014.89,0008.11
2022-09-14 11:35:00,,0822.4,5.00,0.00,30.4,28.0,00.0,39.2,32.0,16.9,0000.3,0008.86,0015.29,0008.14
2022-09-14 11:36:00,,0822.4,5.01,0.00,30.3,28.2,00.0,39.2,32.0,16.9,0000.2,0008.89,0015.41,0008.15
2022-09-14 11:37:00,,0822.4,5.01,0.00,30.3,28.4,00.0,39.1,32.0,17.0,0000.5,0008.91,0015.34,0008.18
2022-09-14 11:38:00,,0822.4,4.99,0.00,30.3,28.5,00.0,39.1,32.0,17.0,0000.6,0008.96,0015.70,0008.21
2022-09-14 11:39:00,,0822.4,5.00,0.00,30.3,28.6,00.0,39.1,32.0,17.0,0000.6,0009.06,0015.55,0008.24
2022-09-14 11:40:00,,0822.4,5.00,0.00,30.3,28.6,00.0,39.1,32.1,17.0,0001.1,0009.09,0015.46,0008.26
2022-09-14 11:41:00,,0822.4,5.00,0.00,30.3,28.7,00.0,39.1,32.1,17.1,0001.1,0009.13,0015.56,0008.26
2022-09-14 11:42:00,,0822.4,4.99,0.00,30.3,28.7,00.0,39.1,32.1,17.2,0000.8,0009.12,0015.36,0008.24
2022-09-14 11:43:00,,0822.4,5.00,0.00,30.3,28.8,00.0,39.1,32.1,17.2,0000.8,0009.15,0015.21,0008.24
2022-09-14 11:44:00,,0822.4,4.99,0.00,30.3,28.8,00.0,39.1,32.1,17.2,0001.1,0009.13,0015.32,0008.21
2022-09-14 11:45:00,,0822.4,5.01,0.00,30.3,28.9,00.0,39.1,32.1,17.1,0000.9,0009.14,0015.50,0008.19
2022-09-14 11:46:00,,0822.4,5.00,0.00,30.4,28.9,00.0,39.1,32.1,17.1,0001.0,0009.20,0015.79,0008.19
2022-09-14 11:47:00,,0822.4,5.00,0.00,30.4,28.9,00.0,39.2,32.2,17.2,0001.3,0009.22,0016.05,0008.21
2022-09-14 11:48:00,,0822.4,4.98,0.00,30.4,28.9,00.0,39.2,32.2,17.1,0001.2,0009.25,0016.11,0008.25
2022-09-14 11:49:00,,0822.4,5.01,0.00,30.4,28.9,00.0,39.2,32.2,17.2,0001.0,0009.27,0015.80,0008.30
2022-09-14 11:50:00,,0822.4,4.99,0.00,30.4,28.9,00.0,39.2,32.2,17.2,0000.6,0009.32,0015.57,0008.36
2022-09-14 11:51:00,,0822.4,5.00,0.00,30.4,29.0,00.0,39.2,32.2,17.2,0000.3,0009.41,0015.89,0008.41
2022-09-14 11:52:00,,0822.4,4.99,0.00,30.4,29.0,00.0,39.2,32.2,17.1,0000.5,0009.52,0016.68,0008.49
2022-09-14 11:53:00,,0822.4,5.00,0.00,30.4,29.0,00.0,39.2,32.2,17.1,0000.4,0009.57,0016.75,0008.53
2022-09-14 11:54:00,,0822.4,4.99,0.00,30.4,29.0,00.0,39.2,32.2,17.1,0000.4,0009.57,0016.61,0008.55
2022-09-14 11:55:00,,0822.4,5.01,0.00,30.4,29.0,00.0,39.2,32.2,17.7,0000.4,0009.57,0016.34,0008.55
2022-09-14 11:56:00,,0822.4,4.99,0.00,30.4,29.0,00.0,39.2,32.2,17.5,0000.3,0009.52,0016.27,0008.52
2022-09-14 11:57:00,,0822.4,5.00,0.00,30.5,29.0,00.0,39.2,32.2,17.4,0000.4,0009.41,0016.08,0008.46
2022-09-14 11:58:00,,0822.4,5.00,0.00,30.5,29.0,00.0,39.2,32.3,17.3,0000.3,0009.34,0015.70,0008.40
2022-09-14 11:59:00,,0822.4,5.01,0.00,30.5,29.0,00.0,39.2,32.3,17.2,0000.1,0009.24,0015.65,0008.31
